FW1389 Weather Reports


Display with metric or nautical units.
time (UTC)temp
F
wind
direction
speed
MPH
gust
MPH
rain 1hr
in
rain 24hr
in
rain mn
in
humidity
%
barometer
mb
20260503031550 53 254 0.0 2.0 0.00 0.86 0.15 97 1012.7
20260503030047 53 254 0.0 1.0 0.01 0.86 0.15 97 1012.6
20260503024538 54 254 0.0 1.0 0.01 0.86 0.15 97 1012.7
20260503023038 54 254 0.0 1.0 0.02 0.86 0.15 97 1012.7
20260503021536 54 254 0.0 2.0 0.02 0.86 0.15 97 1012.8
20260503020037 54 254 0.0 0.0 0.02 0.85 0.14 98 1012.9
20260503014533 54 254 0.0 0.0 0.01 0.84 0.13 97 1013.0
20260503013036 54 254 0.0 1.0 0.01 0.84 0.13 97 1013.2
20260503011531 54 254 0.0 2.0 0.01 0.84 0.13 97 1013.4
20260503010035 54 254 0.0 2.0 0.00 0.83 0.12 97 1013.4
20260503004529 54 254 0.0 0.0 0.00 0.83 0.12 97 1013.5
20260503003027 54 254 0.0 0.0 0.01 0.83 0.12 97 1013.6
20260503001527 54 254 0.0 0.0 0.03 0.83 0.12 97 1013.7
20260503000024 54 254 0.0 1.0 0.07 0.83 0.12 97 1014.0
20260502234528 54 254 0.0 1.0 0.11 0.83 0.12 97 1013.9
20260502233025 54 254 0.0 2.0 0.11 0.82 0.11 97 1014.0
20260502231521 54 254 0.0 3.0 0.09 0.80 0.09 97 1014.0
20260502230026 54 254 0.0 4.0 0.05 0.76 0.05 97 1014.1
20260502224519 55 254 0.0 4.0 0.01 0.72 0.01 97 1014.2
20260502223019 55 244 0.0 3.0 0.00 0.71 0.00 97 1014.2
20260502221517 55 244 0.0 0.0 0.00 0.71 0.00 97 1014.2
20260502220116 55 244 0.0 2.0 0.00 0.71 0.00 97 1014.1
20260502214559 55 244 0.0 2.0 0.00 0.71 0.71 97 1014.3
20260502213101 55 244 0.0 3.0 0.00 0.71 0.71 97 1014.3
20260502211559 55 244 1.0 4.0 0.00 0.71 0.71 97 1014.2
20260502210115 55 240 0.0 3.0 0.00 0.71 0.71 97 1014.2
20260502204559 55 244 0.0 3.0 0.00 0.71 0.71 97 1014.2
20260502203057 55 246 1.0 5.0 0.00 0.71 0.71 97 1014.2
20260502201557 55 282 1.0 4.0 0.00 0.71 0.71 97 1014.0
20260502200057 55 298 2.0 6.0 0.00 0.71 0.71 97 1014.0
20260502194556 55 283 2.0 4.0 0.00 0.71 0.71 97 1013.9
20260502193103 55 306 2.0 6.0 0.03 0.71 0.71 97 1013.9
20260502191600 55 290 0.0 4.0 0.03 0.71 0.71 97 1013.7
20260502190108 55 290 1.0 3.0 0.04 0.71 0.71 97 1013.6
20260502184600 55 290 0.0 3.0 0.04 0.71 0.71 97 1013.6
20260502183110 55 291 1.0 2.0 0.06 0.68 0.68 97 1013.7
20260502181552 55 291 0.0 3.0 0.13 0.68 0.68 97 1013.6
20260502163054 56 300 1.0 4.0 0.05 0.53 0.53 96 1013.6
20260502161559 55 314 1.0 8.0 0.04 0.52 0.52 95 1013.6
20260502151545 56 320 3.0 8.0 0.08 0.48 0.48 96 1014.0
20260502123037 60 19 0.0 0.0 0.00 0.05 0.05 87 1014.5
20260502121544 60 19 0.0 2.0 0.00 0.05 0.05 87 1014.7
20260502114531 60 19 0.0 2.0 0.00 0.05 0.05 88 1015.1
20260502113028 59 19 0.0 1.0 0.00 0.05 0.05 87 1015.1
20260502111529 60 19 0.0 0.0 0.00 0.05 0.05 87 1015.3
20260502110028 60 19 0.0 1.0 0.00 0.05 0.05 86 1015.2
20260502104525 60 19 0.0 0.0 0.00 0.05 0.05 88 1015.3
20260502103028 59 19 0.0 1.0 0.00 0.05 0.05 89 1015.4
20260502101534 59 19 0.0 1.0 0.00 0.05 0.05 90 1015.5
20260502091514 56 19 0.0 0.0 0.05 0.05 0.05 93 1015.7
20260502071502 55 19 0.0 0.0 0.00 0.00 0.00 88 1015.7
20260502070002 55 19 0.0 0.0 0.00 0.00 0.00 88 1015.7
20260502064501 55 19 0.0 2.0 0.00 0.00 0.00 88 1015.6
20260502063003 55 19 0.0 0.0 0.00 0.00 0.00 88 1015.8
20260502061601 55 19 0.0 0.0 0.00 0.00 0.00 88 1015.7
20260502060100 55 19 0.0 0.0 0.00 0.00 0.00 89 1015.7
20260502054558 55 19 0.0 0.0 0.00 0.00 0.00 90 1015.6
20260502053117 54 19 0.0 0.0 0.00 0.00 0.00 90 1015.5
20260502051606 54 19 0.0 0.0 0.00 0.00 0.00 90 1015.6
20260502050058 54 19 0.0 0.0 0.00 0.00 0.00 90 1015.4
20260502044554 53 19 0.0 0.0 0.00 0.00 0.00 90 1015.4
20260502043100 53 19 0.0 1.0 0.00 0.00 0.00 89 1015.5
20260502041614 54 19 0.0 0.0 0.00 0.00 0.00 89 1015.4
20260502040049 54 19 0.0 1.0 0.00 0.00 0.00 89 1015.5
20260502034550 54 19 0.0 2.0 0.00 0.00 0.00 89 1015.5
20260502033102 54 19 0.0 0.0 0.00 0.00 0.00 88 1015.7